| time (UTC) | temp C | wind direction | speed KPH | gust KPH | rain 1hr cm | rain 24hr cm | rain mn cm | humidity % | barometer mb |
| 20260506091954 | 17 | 209 | 4.8 | 9.7 | 0.00 | 0.00 | 0.00 | 77 | 965.7 |
| 20260506090954 | 16 | 278 | 4.8 | 12.9 | 0.00 | 0.00 | 0.00 | 78 | 965.8 |
| 20260506085954 | 16 | 278 | 4.8 | 12.9 | 0.00 | 0.00 | 0.00 | 78 | 965.8 |
| 20260506084954 | 16 | 291 | 3.2 | 9.7 | 0.00 | 0.00 | 0.00 | 79 | 965.6 |
| 20260506083954 | 16 | 270 | 4.8 | 11.3 | 0.00 | 0.00 | 0.00 | 80 | 965.5 |
| 20260506082954 | 16 | 286 | 4.8 | 11.3 | 0.00 | 0.00 | 0.00 | 81 | 965.6 |
| 20260506081954 | 15 | 270 | 3.2 | 9.7 | 0.00 | 0.00 | 0.00 | 82 | 965.6 |
| 20260506080954 | 15 | 285 | 3.2 | 9.7 | 0.00 | 0.00 | 0.00 | 83 | 965.4 |
| 20260506072954 | 15 | 249 | 4.8 | 14.5 | 0.00 | 0.00 | 0.00 | 86 | 965.5 |
| 20260506071954 | 14 | 217 | 6.4 | 14.5 | 0.00 | 0.00 | 0.00 | 87 | 965.5 |
| 20260506070954 | 14 | 212 | 8.0 | 17.7 | 0.00 | 0.00 | 0.00 | 88 | 965.6 |
| 20260506061954 | 12 | 213 | 4.8 | 9.7 | 0.00 | 0.00 | 0.00 | 88 | 965.5 |
| 20260506060954 | 12 | 213 | 4.8 | 9.7 | 0.00 | 0.00 | 0.00 | 88 | 965.5 |
| 20260506044954 | 12 | 128 | 3.2 | 4.8 | 0.00 | 0.00 | 0.00 | 87 | 965.5 |
| 20260506043954 | 12 | 147 | 1.6 | 4.8 | 0.00 | 0.00 | 0.00 | 86 | 965.4 |
| 20260506042954 | 12 | 160 | 3.2 | 6.4 | 0.00 | 0.00 | 0.00 | 86 | 965.2 |
| 20260506041954 | 12 | 135 | 3.2 | 4.8 | 0.00 | 0.00 | 0.00 | 86 | 965.3 |
| 20260506040954 | 12 | 251 | 3.2 | 4.8 | 0.00 | 0.00 | 0.00 | 86 | 965.2 |
| 20260506035954 | 12 | 235 | 3.2 | 4.8 | 0.00 | 0.00 | 0.00 | 85 | 965.3 |
| 20260506034954 | 12 | 187 | 3.2 | 8.0 | 0.00 | 0.00 | 0.00 | 85 | 965.2 |
| 20260506033954 | 12 | 187 | 3.2 | 8.0 | 0.00 | 0.00 | 0.00 | 85 | 965.2 |
| 20260506032954 | 12 | 187 | 3.2 | 8.0 | 0.00 | 0.00 | 0.00 | 85 | 965.2 |
| 20260506031954 | 12 | 187 | 3.2 | 8.0 | 0.00 | 0.00 | 0.00 | 85 | 965.2 |
| 20260506030954 | 12 | 187 | 3.2 | 8.0 | 0.00 | 0.00 | 0.00 | 85 | 965.2 |
| 20260506025954 | 12 | 187 | 3.2 | 8.0 | 0.00 | 0.00 | 0.00 | 85 | 965.2 |
| 20260506024954 | 12 | 189 | 3.2 | 4.8 | 0.00 | 0.00 | 0.00 | 85 | 965.2 |
| 20260506023954 | 12 | 210 | 1.6 | 3.2 | 0.00 | 0.00 | 0.00 | 85 | 965.1 |
| 20260506022954 | 12 | 218 | 3.2 | 4.8 | 0.00 | 0.00 | 0.00 | 85 | 965.3 |
| 20260506021954 | 12 | 198 | 3.2 | 3.2 | 0.00 | 0.00 | 0.00 | 85 | 965.4 |
| 20260506020954 | 12 | 177 | 1.6 | 3.2 | 0.00 | 0.00 | 0.00 | 85 | 965.3 |
| 20260506015954 | 12 | 225 | 1.6 | 4.8 | 0.00 | 0.00 | 0.00 | 85 | 965.4 |
| 20260506014954 | 12 | 232 | 1.6 | 3.2 | 0.00 | 0.00 | 0.00 | 85 | 965.5 |
| 20260506013954 | 13 | 216 | 3.2 | 8.0 | 0.00 | 0.00 | 0.00 | 85 | 965.5 |
| 20260506012954 | 13 | 216 | 3.2 | 8.0 | 0.00 | 0.00 | 0.00 | 85 | 965.5 |
| 20260506011954 | 13 | 216 | 3.2 | 8.0 | 0.00 | 0.00 | 0.00 | 85 | 965.5 |
| 20260506010954 | 13 | 216 | 3.2 | 8.0 | 0.00 | 0.00 | 0.00 | 85 | 965.5 |
| 20260506005954 | 13 | 216 | 3.2 | 8.0 | 0.00 | 0.00 | 0.00 | 85 | 965.5 |
| 20260506004954 | 13 | 215 | 4.8 | 9.7 | 0.00 | 0.00 | 0.00 | 85 | 965.5 |
| 20260506003953 | 13 | 216 | 4.8 | 9.7 | 0.00 | 0.00 | 0.00 | 85 | 965.5 |
| 20260506002954 | 13 | 270 | 3.2 | 9.7 | 0.00 | 0.00 | 0.00 | 85 | 965.4 |
| 20260506001954 | 13 | 230 | 3.2 | 8.0 | 0.00 | 0.00 | 0.00 | 85 | 965.5 |
| 20260506000954 | 13 | 279 | 3.2 | 8.0 | 0.00 | 0.00 | 0.00 | 85 | 965.5 |
| 20260505235954 | 13 | 230 | 3.2 | 3.2 | 0.00 | 0.00 | 0.00 | 85 | 965.7 |
| 20260505234954 | 13 | 219 | 3.2 | 6.4 | 0.00 | 0.00 | 0.00 | 85 | 965.8 |
| 20260505233954 | 14 | 219 | 3.2 | 8.0 | 0.00 | 0.00 | 0.00 | 85 | 965.7 |
| 20260505232954 | 14 | 225 | 3.2 | 8.0 | 0.00 | 0.00 | 0.00 | 85 | 965.6 |
| 20260505231954 | 14 | 229 | 3.2 | 6.4 | 0.00 | 0.00 | 0.00 | 84 | 965.7 |
| 20260505230954 | 14 | 218 | 3.2 | 8.0 | 0.00 | 0.00 | 0.00 | 84 | 965.7 |
| 20260505225954 | 14 | 217 | 3.2 | 8.0 | 0.00 | 0.00 | 0.00 | 84 | 965.6 |
| 20260505224954 | 14 | 229 | 3.2 | 8.0 | 0.00 | 0.00 | 0.00 | 84 | 965.4 |
| 20260505223954 | 14 | 227 | 3.2 | 6.4 | 0.00 | 0.00 | 0.00 | 84 | 965.3 |
| 20260505222954 | 14 | 236 | 3.2 | 8.0 | 0.00 | 0.00 | 0.00 | 85 | 965.3 |
| 20260505221954 | 14 | 225 | 3.2 | 8.0 | 0.00 | 0.00 | 0.00 | 85 | 965.3 |
| 20260505220954 | 15 | 225 | 3.2 | 8.0 | 0.00 | 0.00 | 0.86 | 85 | 965.3 |
| 20260505215954 | 15 | 233 | 3.2 | 8.0 | 0.00 | 0.00 | 0.86 | 85 | 965.1 |
| 20260505214954 | 15 | 253 | 3.2 | 9.7 | 0.00 | 0.00 | 0.86 | 84 | 965.2 |
| 20260505213954 | 15 | 279 | 6.4 | 14.5 | 0.00 | 0.00 | 0.84 | 83 | 965.5 |
| 20260505212954 | 15 | 279 | 6.4 | 14.5 | 0.00 | 0.00 | 0.84 | 83 | 965.5 |
| 20260505211954 | 15 | 279 | 6.4 | 14.5 | 0.00 | 0.00 | 0.84 | 83 | 965.5 |
| 20260505210954 | 15 | 279 | 6.4 | 14.5 | 0.00 | 0.00 | 0.84 | 83 | 965.5 |
| 20260505205954 | 15 | 279 | 6.4 | 14.5 | 0.00 | 0.00 | 0.84 | 83 | 965.5 |
| 20260505204954 | 15 | 285 | 8.0 | 14.5 | 0.00 | 0.00 | 0.84 | 82 | 965.3 |
| 20260505203954 | 15 | 284 | 3.2 | 9.7 | 0.00 | 0.00 | 0.84 | 82 | 965.3 |
| 20260505202954 | 15 | 225 | 3.2 | 8.0 | 0.00 | 0.00 | 0.84 | 82 | 965.4 |
| 20260505201954 | 15 | 216 | 4.8 | 12.9 | 0.00 | 0.00 | 0.84 | 83 | 965.5 |
| 20260505200954 | 15 | 255 | 3.2 | 6.4 | 0.05 | 0.00 | 0.84 | 83 | 965.2 |
| 20260505195954 | 15 | 255 | 3.2 | 6.4 | 0.08 | 0.00 | 0.84 | 83 | 965.2 |
| 20260505194954 | 15 | 315 | 3.2 | 12.9 | 0.20 | 0.00 | 0.84 | 83 | 964.7 |
| 20260505193954 | 16 | 310 | 4.8 | 14.5 | 0.20 | 0.00 | 0.84 | 83 | 964.6 |
| 20260505192954 | 16 | 289 | 9.7 | 20.9 | 0.23 | 0.00 | 0.84 | 83 | 964.7 |
| 20260505191954 | 16 | 289 | 9.7 | 20.9 | 0.23 | 0.00 | 0.84 | 83 | 964.7 |
| 20260505190954 | 16 | 297 | 9.7 | 24.1 | 0.18 | 0.00 | 0.79 | 80 | 964.1 |
| 20260505185954 | 17 | 282 | 9.7 | 25.7 | 0.05 | 0.00 | 0.66 | 78 | 964.5 |
| 20260505184954 | 17 | 282 | 9.7 | 25.7 | 0.05 | 0.00 | 0.66 | 78 | 964.5 |
| 20260505183954 | 17 | 183 | 4.8 | 12.9 | 0.03 | 0.00 | 0.64 | 76 | 963.9 |
| 20260505182954 | 18 | 99 | 6.4 | 17.7 | 0.05 | 0.00 | 0.61 | 75 | 962.4 |
| 20260505181954 | 18 | 99 | 6.4 | 17.7 | 0.33 | 0.00 | 0.61 | 75 | 962.4 |
| 20260505180954 | 18 | 103 | 3.2 | 11.3 | 0.58 | 0.00 | 0.61 | 75 | 962.1 |
| 20260505175954 | 18 | 333 | 6.4 | 22.5 | 0.61 | 0.00 | 0.61 | 75 | 961.9 |
| 20260505174954 | 18 | 336 | 8.0 | 22.5 | 0.61 | 0.00 | 0.61 | 73 | 962.0 |
| 20260505173954 | 19 | 337 | 8.0 | 19.3 | 0.61 | 0.00 | 0.61 | 69 | 962.4 |
| 20260505172953 | 20 | 315 | 3.2 | 11.3 | 0.56 | 0.00 | 0.56 | 64 | 962.8 |
| 20260505171954 | 21 | 320 | 3.2 | 4.8 | 0.28 | 0.00 | 0.28 | 59 | 963.4 |
| 20260505170954 | 21 | 107 | 6.4 | 19.3 | 0.03 | 0.00 | 0.03 | 53 | 963.1 |
| 20260505165953 | 21 | 333 | 6.4 | 17.7 | 0.00 | 0.00 | 0.00 | 50 | 962.1 |
| 20260505164954 | 21 | 333 | 6.4 | 17.7 | 0.00 | 0.00 | 0.00 | 50 | 962.1 |
| 20260505163954 | 22 | 329 | 6.4 | 17.7 | 0.00 | 0.00 | 0.00 | 46 | 962.2 |
| 20260505162954 | 23 | 332 | 9.7 | 20.9 | 0.00 | 0.00 | 0.00 | 43 | 962.3 |
| 20260505160223 | 24 | 330 | 8.0 | 20.9 | 0.00 | 0.00 | 0.00 | 39 | 962.4 |
| 20260505153223 | 25 | 315 | 3.2 | 8.0 | 0.00 | 0.00 | 0.00 | 35 | 962.6 |
| 20260505152223 | 25 | 32 | 1.6 | 9.7 | 0.00 | 0.00 | 0.00 | 30 | 962.7 |
| 20260505151223 | 25 | 161 | 1.6 | 3.2 | 0.00 | 0.00 | 0.00 | 30 | 962.7 |
| 20260505150223 | 26 | 5 | 1.6 | 4.8 | 0.00 | 0.00 | 0.00 | 29 | 962.7 |
| 20260505140223 | 26 | 128 | 1.6 | 6.4 | 0.00 | 0.00 | 0.00 | 29 | 963.5 |
| 20260505130223 | 26 | 251 | 3.2 | 6.4 | 0.00 | 0.00 | 0.00 | 30 | 964.0 |
| 20260505124223 | 26 | 292 | 3.2 | 9.7 | 0.00 | 0.00 | 0.00 | 30 | 964.2 |
| 20260505123223 | 26 | 138 | 6.4 | 12.9 | 0.00 | 0.00 | 0.00 | 30 | 964.3 |
| 20260505122223 | 26 | 78 | 3.2 | 6.4 | 0.00 | 0.00 | 0.00 | 30 | 964.4 |
| 20260505121223 | 26 | 360 | 3.2 | 9.7 | 0.00 | 0.00 | 0.00 | 31 | 964.4 |
| 20260505120223 | 26 | 336 | 3.2 | 8.0 | 0.00 | 0.00 | 0.00 | 31 | 964.4 |
| 20260505115223 | 26 | 315 | 3.2 | 8.0 | 0.00 | 0.00 | 0.00 | 34 | 964.5 |
| 20260505114223 | 26 | 110 | 3.2 | 9.7 | 0.00 | 0.00 | 0.00 | 33 | 964.6 |
| 20260505113223 | 25 | 56 | 3.2 | 4.8 | 0.00 | 0.00 | 0.00 | 34 | 964.7 |
| 20260505112223 | 25 | 285 | 3.2 | 9.7 | 0.00 | 0.00 | 0.00 | 35 | 964.9 |
| 20260505111223 | 25 | 345 | 3.2 | 9.7 | 0.00 | 0.00 | 0.00 | 36 | 964.9 |
| 20260505110223 | 25 | 129 | 1.6 | 9.7 | 0.00 | 0.00 | 0.00 | 37 | 965.0 |
| 20260505101223 | 23 | 131 | 6.4 | 12.9 | 0.00 | 0.00 | 0.00 | 44 | 965.6 |
| 20260505100223 | 23 | 131 | 6.4 | 12.9 | 0.00 | 0.00 | 0.00 | 44 | 965.6 |
| 20260505095223 | 23 | 107 | 3.2 | 9.7 | 0.00 | 0.00 | 0.00 | 45 | 965.8 |
| 20260505094223 | 22 | 104 | 4.8 | 12.9 | 0.00 | 0.00 | 0.00 | 47 | 965.9 |
| 20260505093223 | 22 | 104 | 4.8 | 12.9 | 0.00 | 0.00 | 0.00 | 47 | 965.9 |